Location: Goettingen
(51.5300°N, 9.9433°E)
Time: 18:42:07
(UTC+02:00)

ISS - Pass Details

Date: 09 May 2026
Orbit: 414 x 424 km, 51.6° (Epoch: 13 May)

Event Time Altitude Azimuth Distance (km) Brightness Sun altitude
Rises 21:40:46 0° 209° (SSW) 2,339 -0.1 -6.5°
Reaches altitude 10° 21:43:13 10° 192° (SSW) 1,482 -1.2 -6.8°
Maximum altitude 21:45:40 19° 144° (SE) 1,044 -2.3 -7.1°
Drops below altitude 10° 21:48:09 10° 96° (E) 1,490 -1.5 -7.4°
Sets 21:50:37 0° 78° (ENE) 2,358 -0.3 -7.7°
